Lake Providence, LA (71254)

6:47 PM CST on February 07, 2016 (GMT -0600)
APRSWXNET | | Change Station
CLOSE
Current Station
Personal Weather Station
Location: Monticello, LA
Elevation: 91 ft
Nearby Weather Stations

Elev 91 ft 32.61 °N, 91.35 °W | Updated 19 minutes ago

Clear
Clear
52 °F
Feels Like 52 °F
N
2
Wind Variable Wind from SSW
Gusts 5.0 mph

Today
High -- | Low -- °F
--% Chance of Precip.
Yesterday
High -- | Low -- °F
Precip. -- in
Pressure 30.13 in
Visibility 10.0 miles
Clouds Clear
Dew Point 34 °F
Humidity 51%
Rainfall in
Snow Depth Not available.
6:55 AM 5:42 PM
Waning Crescent, 0% visible
METAR KTVR 072353Z AUTO 22003KT 10SM CLR 13/M01 A3011 RMK AO2 SLP203 T01281011 10161 20128 57005
Pressure 30.13 in
Visibility 10.0 miles
Clouds Clear
Dew Point 34 °F
Humidity 51%
Rainfall in
Snow Depth Not available.
6:55 AM 5:42 PM
Waning Crescent, 0% visible
METAR KTVR 072353Z AUTO 22003KT 10SM CLR 13/M01 A3011 RMK AO2 SLP203 T01281011 10161 20128 57005

10-Day Weather Forecast

Almanac

Astronomy

Feb. 07, 2016 Rise Set
Actual Time
Civil Twilight
Nautical Twilight
Astronomical Twilight
Moon
Length of Visible Light
Length of Day
Tomorrow will be .
, % of the Moon is Illuminated

Today's Extremes

State Highs State Lows

Community

WunderPhotos

Upload Photos

1,891,339 photos uploaded!

WunderBlog® & News

Nearby

Air Quality

  Air Quality AQ Index Pollutant
Not available.

Snow Depth

Station Depth Elevation

Earthquake Activity

City Distance Mag. Time & Date
Minimum magnitude displayed is 2.5.

Coastal Water Temperatures

Place Temperature

Stations

Nearby Weather Stations

Station Location Temp. Windchill Dew Point Humidity Wind Precip. Elev Updated Type
                   

Watches & Warnings

There are currently no watches in effect.